Kalaheo, HI (96741)

6:19 AM HST on August 31, 2015 (GMT -1000)
Koloa Estates | | Change Station
CLOSE
Current Station
Personal Weather Station
Location: Koloa, HI
Elevation: 144 ft
Nearby Weather Stations
Active Advisory: High Surf Advisory Active Notice: Record Report

Elev 144 ft 21.89 °N, 159.47 °W | Updated 17 seconds ago

Rain
Rain
77.0 °F
Feels Like 78 °F
N
7.2
Wind Variable Wind from NNE
Gusts 8.0 mph

Today
High -- | Low -- °F
--% Chance of Precip.
Yesterday
High -- | Low -- °F
Precip. -- in
6:20 AM 6:55 PM
Waning Gibbous, 95% visible
Pressure 29.91 in
Visibility 10.0 miles
Clouds Scattered Clouds 1200 ft
Mostly Cloudy 2100 ft
Overcast 3400 ft
Heat Index 78 °F
Dew Point 76 °F
Humidity 96%
Rainfall 0.20 in
Snow Depth Not available.
UV 0 out of 12
Pollen Not available.
Air Quality Not available.
Flu Activity Not available.
METAR PHLI 311610Z 04012KT 10SM SCT012 BKN021 OVC034 26/26 A2991
Pressure 29.91 in
Visibility 10.0 miles
Clouds Scattered Clouds 1200 ft
Mostly Cloudy 2100 ft
Overcast 3400 ft
Heat Index 78 °F
Dew Point 76 °F
Humidity 96%
Rainfall 0.20 in
Snow Depth Not available.
UV 0 out of 12
Pollen Not available.
Air Quality Not available.
Flu Activity Not available.
METAR PHLI 311610Z 04012KT 10SM SCT012 BKN021 OVC034 26/26 A2991

10-Day Weather Forecast

×

Almanac

Astronomy

Aug. 31, 2015 Rise Set
Actual Time
Civil Twilight
Nautical Twilight
Astronomical Twilight
Moon
Length of Visible Light
Length of Day
Tomorrow will be .
, % of the Moon is Illuminated

Today's Extremes

State Highs State Lows

Community

WunderPhotos

Upload Photos

1,851,301 photos uploaded!

WunderBlogs® & News

Nearby

Air Quality

  Air Quality AQ Index Pollutant
Not available.

Snow Depth

Station Depth Elevation

Earthquake Activity

City Distance Mag. Time & Date
Minimum magnitude displayed is 2.5.

Coastal Water Temperatures

Place Temperature

Stations

Nearby Weather Stations

Station Location Temp. Windchill Dew Point Humidity Wind Precip. Elev Updated Type
                   
High Surf Advisory
Statement as of 3:14 AM HST on August 31, 2015

... High surf advisory remains in effect until 6 PM HST
Wednesday...

A high surf advisory remains in effect until 6 PM HST Wednesday.

* Surf... along east facing shores... increasing to 6 to 10 feet
later today... then rising to 8 to 12 feet Tuesday.

* Impacts... moderate... expect strong breaking waves... shore
break... and strong longshore and rip currents making swimming
difficult and dangerous.

Precautionary/preparedness actions...

Beachgoers... swimmers... and surfers should heed all advice given
by ocean safety officials and exercise caution. Boaters should
expect recreational surfers and body boarders utilizing Harbor
channels to access surfing areas.